Left ArrowRight Arrow

32.84923, -109.75925

Hourly Observations for June 19, 2022

Temp ( °F °C ) Dew Point ( °F °C ) Humidity (%) Winds ( mph kmh ) Pressure ( in mb ) Visibility ( mi km ) Precip ( " mm )
12:51 am 00:51 Mostly Clear 70 21.1 64 17.8 82 82 E 12 19 29.86 1011 10 16 0.00 0.00
1:51 am 01:51 Mostly Cloudy 71 21.7 62 16.7 73 73 E 13 20 29.82 1010 10 16 0.00 0.00
1:58 am 01:58 Mostly Cloudy with Nearby Thunderstorms 72 22 63 17 73 73 E 10 17 29.84 1010 10 16 0.00 0.00
2:20 am 02:20 Clear 71 21.7 62 16.7 73 73 ENE 14 22 29.82 1010 10 16 0.00 0.00
2:51 am 02:51 Clear 71 21.7 62 16.7 73 73 SSE 10 17 29.80 1009 10 16 0.00 0.00
3:51 am 03:51 Clear 70 21.1 62 16.7 76 76 SE 8 13 29.81 1010 10 16 0.00 0.00
4:51 am 04:51 Clear 69 20.6 63 17.2 81 81 ESE 10 17 29.84 1011 10 16 0.00 0.00
5:51 am 05:51 Sunny 69 20.6 63 17.2 81 81 E 6 9 29.87 1012 10 16 0.00 0.00
6:51 am 06:51 Sunny 72 22.2 62 16.7 71 71 SE 7 11 29.89 1012 10 16 0.00 0.00
7:51 am 07:51 Sunny 75 23.9 63 17.2 66 66 SE 13 20 29.90 1013 10 16 0.00 0.00
8:51 am 08:51 Mostly Sunny 77 25 64 17.8 64 64 SSE 8 13 29.91 1013 10 16 0.00 0.00
9:51 am 09:51 Sunny 83 28.3 64 17.8 53 53 SE 8 13 29.89 1012 10 16 0.00 0.00
10:51 am 10:51 Sunny 87 30.6 59 15 39 39 SSE 12 19 29.86 1011 10 16 0.00 0.00
11:51 am 11:51 Sunny 90 32.2 58 14.4 34 34 SE 14 22 29.83 1010 10 16 0.00 0.00
12:51 pm 12:51 Sunny 92 33.3 59 15 33 33 S 15 24 29.79 1009 10 16 0.00 0.00
1:37 pm 13:37 Sunny with Nearby Thunderstorms 92 33.3 57 13.9 31 31 SSE 7 11 29.64 1004 10 16 0.00 0.00
1:51 pm 13:51 Sunny 92 33.3 57 13.9 31 31 SSE 16 26 29.74 1007 10 16 0.00 0.00
2:11 pm 14:11 Mostly Cloudy with Nearby Thunderstorms 87 30.6 65 18.3 48 48 SW 10 17 29.66 1005 8 13 0.00 0.00
2:25 pm 14:25 Mostly Cloudy with Thunderstorms 87 30.6 62 16.7 43 43 WSW 12 19 29.67 1005 10 16 0.01 0.25
2:51 pm 14:51 Sunny with Nearby Thunderstorms 83 28.3 58 14.4 43 43 SW 14 22 29.76 1008 10 16 0.01 0.25
3:11 pm 15:11 Sunny 83 28.3 57 13.9 41 41 VRB 3 6 29.69 1005 10 16 0.00 0.00
3:51 pm 15:51 Mostly Sunny 86 30 56 13.3 36 36 E 5 7 29.75 1007 10 16 0.00 0.00
4:35 pm 16:35 Mostly Cloudy with Nearby Thunderstorms 80 26.7 62 16.7 54 54 ESE 16 26 29.71 1006 10 16 0.00 0.00
4:44 pm 16:44 Mostly Cloudy with Thunderstorms 79 26 64 18 61 61 SE 13 20 29.73 1007 9 14 0.00 0.00
4:51 pm 16:51 Mostly Cloudy with Thunderstorms 75 23.9 67 19.4 76 76 S 8 13 29.82 1010 4 6 0.01 0.25
4:57 pm 16:57 Cloudy with Strong Thunderstorms 73 22.8 68 20 84 84 SSE 6 9 29.77 1008 2 3 0.03 0.76
5:08 pm 17:08 Cloudy with Thunderstorms 73 22.8 70 21.1 90 90 E 8 13 29.74 1007 3 5 0.27 6.86
5:19 pm 17:19 Partly Cloudy 75 23.9 70 21.1 84 84 ENE 8 13 29.72 1006 10 16 0.27 6.86
5:51 pm 17:51 Sunny 80 26.7 67 19.4 64 64 E 8 13 29.77 1008 10 16 0.27 6.86
6:51 pm 18:51 Mostly Cloudy 80 26.7 64 17.8 58 58 E 13 20 29.77 1008 10 16 0.00 0.00
7:51 pm 19:51 Cloudy 79 26.1 62 16.7 56 56 ESE 7 11 29.78 1009 10 16 0.00 0.00
8:51 pm 20:51 Mostly Cloudy 77 25 62 16.7 60 60 E 7 11 29.80 1009 10 16 0.00 0.00
9:51 pm 21:51 Mostly Clear 75 23.9 63 17.2 66 66 SSE 5 7 29.82 1010 10 16 0.00 0.00
10:51 pm 22:51 Clear 74 23.3 62 16.7 67 67 E 9 15 29.82 1010 10 16 0.00 0.00
11:51 pm 23:51 Clear 74 23.3 58 14.4 57 57 E 10 17 29.81 1010 10 16 0.00 0.00

Powered by Vaisala Xweather